Regional Weather Roundup
Issued by NWS

Home | Current Version | Previous Version | Text Only | Print | Product List | Glossary On
Versions: 1 2 3 4 5 6 7 8 9 10 11 12 13 14 15 16 17 18 19 20 21 22 23 24 25 26 27 28 29 30 31 32 33 34 35 36 37 38 39 40 41 42 43 44 45 46 47 48 49 50
000
ASUS44 KFWD 051915
RWRTX
NORTH TEXAS HOURLY WEATHER ROUNDUP
NATIONAL WEATHER SERVICE FORT WORTH TX
200 PM CDT TUE MAY 05 2015

NOTE: "FAIR" INDICATES FEW OR NO CLOUDS BELOW 12,000 FEET WITH NO
SIGNIFICANT WEATHER AND/OR OBSTRUCTIONS TO VISIBILITY.

TXZ118-119-052000-
DALLAS/FORT WORTH METROPLEX

CITY           SKY/WX    TMP DP  RH WIND       PRES   REMARKS
DFW AIRPORT    PTSUNNY   78  65  63 S21G29    29.96F
DALLAS LOVE    PTSUNNY   82  64  54 SE23      29.98F
FTW MEACHAM    MOSUNNY   78  64  61 SE18G29   29.95F
DAL-EXECUTIVE  PTSUNNY   77  63  61 S17G31    29.97F
FTW-ALLIANCE   PTSUNNY   75  63  66 S15G26    29.96F
FTW-NAS-JRB    PTSUNNY   79  62  56 S21G32    29.96F
FTW-SPINKS     PTSUNNY   79  63  57 SE22G28   29.97F
ARLINGTON      PTSUNNY   79  61  53 SE24G35   29.95F
GRAND PRAIRIE  SUNNY     79  64  61 SE17G25   29.98F
ADDISON        CLOUDY    79  63  57 SE20G25   29.99F
MESQUITE       PTSUNNY   81  64  57 SE17      29.99F
LANCASTER      MOSUNNY   79  65  63 SE13      30.00F
$$

TXZ091>094-102>105-117-120-121-131>134-052000-
NORTH CENTRAL TEXAS

CITY           SKY/WX    TMP DP  RH WIND       PRES   REMARKS
SHRMAN/DENISON PTSUNNY   79  68  70 S16G24    30.01F
GAINESVILLE    MOSUNNY   74  63  69 SE18G26   29.99F
BOWIE          CLOUDY    72  61  67 SE14G24   29.95F
BRIDGEPORT     PTSUNNY   75  64  69 SE17      29.97F
DECATUR        MOSUNNY   74  60  61 SE22G29   29.96F
DENTON         MOSUNNY   76  63  64 SE20G31   29.97F
MCKINNEY       CLOUDY    78  66  66 S14       29.99F
GREENVILLE     MOSUNNY   82  61  47 S16G22    30.00F
ROCKWALL       PTSUNNY   81  65  58 S18G26    29.98F
TERRELL        MOSUNNY   85  64  49 S17G25    30.00F
WAXAHACHIE     PTSUNNY   80  67  64 S14G21    29.99F
CLEBURNE       MOSUNNY   77  66  69 SE21      29.98F
GRANBURY         N/A     76  63  64 SE15      29.96F
$$

TXZ083>090-098>101-113>116-127>130-139>142-154-155-052000-
WESTERN NORTH TEXAS

CITY           SKY/WX    TMP DP  RH WIND       PRES   REMARKS
WICHITA FALLS  TSTM      64  63  96 NE13      29.94F VSB 1
WF-KICKAPOO    TSTM      67  64  93 NE7       29.95F
VERNON         CLOUDY    66  62  85 SE14      29.93F
ABILENE        CLOUDY    72  61  68 S22G32    29.92F
ABILENE-DYESS  CLOUDY    71  62  72 S25G32    29.90F
BRECKENRIDGE   CLOUDY    74  60  60 S18G32    29.92F
GRAHAM         LGT RAIN  68  66  94 SE6       29.92S
MINERAL WELLS  LGT RAIN  72  64  76 SE15G22   29.94F
STEPHENVILLE   CLOUDY    74  62  66 SE15G23   29.97F
COMANCHE       CLOUDY    73  64  74 S17G28    29.95F
BROWNWOOD      CLOUDY    73  63  68 SE14G25   29.94F
COLEMAN        CLOUDY    74  64  71 S17G23    29.93F
BRADY          LGT RAIN  70  64  83 SE9       29.95S
$$

TXZ143>147-156>162-174-175-052000-
CENTRAL TEXAS

CITY           SKY/WX    TMP DP  RH WIND       PRES   REMARKS
WACO           LGT RAIN  82  64  54 S18G25    29.97F
WACO-TSTC      MOSUNNY   81  63  54 S16       29.97F
WACO-MCGREGOR  PTSUNNY   81  63  54 S22       29.98F
HILLSBORO      MOSUNNY   79  62  55 SE17G26   29.97F
CORSICANA      PTSUNNY   78  69  73 S8        30.00F
MEXIA          PTSUNNY   81  66  61 S14G21    29.97F
HEARNE         CLOUDY    82  65  55 S17G24    29.98F
CAMERON        PTSUNNY   84  65  53 S14       29.97F
TEMPLE         MOSUNNY   82  61  47 S18G28    29.96F
KILLEEN        MOSUNNY   78  62  59 S20G25    29.96F
KILLEEN-SKYLRK PTSUNNY   81  61  50 SE17G23   29.97F
FORT HOOD      PTSUNNY   79  61  54 SE16G28   29.95F
GATESVILLE     MOSUNNY   81  63  54 SE10G23   29.98F
HAMILTON       CLOUDY    76  61  59 S20G30    29.98F
LAMPASAS       RAIN      72  65  78 SE12G20   29.97F
$$

TXZ095>097-106>112-122>126-135>138-148>153-164>167-052000-
EAST TEXAS

CITY           SKY/WX    TMP DP  RH WIND       PRES   REMARKS
PARIS          CLOUDY    79  63  57 MISG      30.03F
SULPHUR SPRNGS PTSUNNY   79  67  66 SE17G24   30.04F
MOUNT PLEASANT PTSUNNY  N/A N/A N/A SE14      30.05F
GILMER           N/A    N/A N/A N/A MISG        N/A
MINEOLA        PTSUNNY   81  64  57 SE8G18    30.02F
TYLER          MOSUNNY   82  64  54 SE20      30.02F
LONGVIEW       MOSUNNY   83  64  52 SE14G21   30.03F
MARSHALL       SUNNY     87  62  42 S15       30.07F
ATHENS         MOSUNNY   79  68  69 SE10G18   30.00F
PALESTINE      HVY RAIN  69  68  96 CALM      30.03R
JACKSONVILLE   PTSUNNY   81  64  56 E13G21    30.05F
HENDERSON      PTSUNNY   83  64  52 SE13      30.05F
NACOGDOCHES    MOSUNNY   81  64  57 SE18G24   30.03F
LUFKIN           N/A     85  64  49 SE17G26   30.03F
$$

SUPPLEMENTAL OBSERVATIONS (CENTRAL)

CITY           SKY/WX    TMP DP  RH WIND       PRES   REMARKS
LAKE TEXOMA      N/A     75  64  69 S8          N/A
PAT MAYSE LAKE   N/A     75  64  69 SE14        N/A
GREENVILLE       N/A     81  66  61 SE9         N/A
ATHENS           N/A     79  68  69 E9G22       N/A
MCGREGOR         N/A     81  63  54 S18G26      N/A
TEMPLE           N/A     82  61  47 SE16G26     N/A
$$

SUPPLEMENTAL OBSERVATIONS (WEST)

CITY           SKY/WX    TMP DP  RH WIND       PRES   REMARKS
MILLERS CREEK    N/A     61  59  94 NW5G14      N/A
POSSUM KINGDOM   N/A     73  63  68 SE16G26     N/A
GRANBURY         N/A     77  63  61 SE18G26     N/A
HAMBY            N/A    N/A N/A N/A S21G35      N/A
IVIE RESERVOIR   N/A    N/A N/A N/A SE18G25     N/A
COLORADO BEND    N/A     79  63  57 S17G23      N/A
$$

SUPPLEMENTAL OBSERVATIONS (EAST)

CITY           SKY/WX    TMP DP  RH WIND       PRES   REMARKS
CLARKSVILLE      N/A     81  64  57 SE14        N/A
TEXARKANA        N/A     82  59  44 SE5G15      N/A
LINDEN           N/A     82  61  47 E6G15       N/A
CADDO LAKE       N/A     82  63  51 SE6         N/A
GILMER           N/A     82  64  54 SE15G23     N/A
HENDERSON        N/A     82  64  54 SE9G22      N/A
LUFKIN           N/A     81  63  54 MISG        N/A
N SABINE NF      N/A     84  63  48 MISG        N/A
S SABINE NF      N/A     84  63  48 CALM        N/A
$$

SUPPLEMENTAL OBSERVATIONS ARE A COLLECTION OF AUTOMATED INSTRUMENTS
THAT ARE MAINTAINED BY A VARIETY OF FEDERAL AND STATE AGENCIES.
CERTAIN ELEMENTS...SUCH AS HUMIDITY VALUES AND SUSTAINED WIND
SPEEDS...MAY BE APPROXIMATED.




USA.gov is the U.S. government's official web portal to all federal, state and local government web resources and services.